Regional Weather Roundup
Issued by NWS

Home | Current Version | Previous Version | Graphics & Text | Print | Product List | Glossary Off
Versions: 1 2 3 4 5 6 7 8 9 10 11 12 13 14 15 16 17 18 19 20 21 22 23 24 25 26 27 28 29 30 31 32 33 34 35 36 37 38 39 40 41 42 43 44 45 46 47 48 49 50

916
ASUS43 KMPX 250910
RWRMN
WEATHER ROUNDUP FOR MINNESOTA
NATIONAL WEATHER SERVICE TWIN CITIES/CHANHASSEN MN
400 AM CDT THU AUG 25 2016


NOTE: "FAIR" INDICATES FEW OR NO CLOUDS BELOW 12,000 FEET WITH NO
SIGNIFICANT WEATHER AND/OR OBSTRUCTIONS TO VISIBILITY. N/A MEANS
CURRENT SKY AND/OR WEATHER CONDITIONS ARE NOT AVAILABLE.

MNZ060>063-068>070-251000-
   Twin Cities Metro

CITY           SKY/WX    TMP DP  RH WIND       PRES   REMARKS
TWIN CITIES    CLEAR     64  58  80 SW3       30.02R
ST PAUL        CLEAR     62  59  90 CALM      30.02R
CRYSTAL        CLEAR     62  56  80 W5        30.01R
BLAINE         CLEAR     64  61  88 W3        30.01S
LAKEVILLE      CLEAR     57  57 100 CALM      30.03S
EDEN PRAIRIE   CLEAR     62  58  86 W3        30.02R
LAKEVILLE      CLEAR     57  57 100 CALM      30.03S
SOUTH ST PAUL  CLEAR     63  59  87 W6        30.02R
LAKE ELMO      FAIR      57  55  94 CALM      30.03R
$$
MNZ001>005-007-008-013>017-022>024-027-028-251000-
   Northwest Minnesota

CITY           SKY/WX    TMP DP  RH WIND       PRES   REMARKS
BEMIDJI        CLEAR     55  51  86 SW7       29.93S
HALLOCK        CLEAR     55  54  94 SW10      29.85F
ROSEAU         CLEAR     55  52  88 SW7       29.85S
WARROAD        CLEAR     55  52  88 SW5       29.85S
THIEF RVR FALL CLEAR     55  52  89 SW10      29.91R
CROOKSTON      CLEAR     55  52  88 W10       29.92R
FOSSTON        CLEAR     50  48  93 SW7       29.94S
DETROIT LAKES  CLEAR     57  52  82 W8        29.99R
MOORHEAD       CLEAR     55  52  88 SW7       29.98R
PARK RAPIDS    CLEAR     53  49  86 SW6       29.97R
MAHNOMEN       FAIR      54  50  87 SW9       29.95R
$$
MNZ006-009>011-018-025>026-251000-
   North Central Minnesota

CITY           SKY/WX    TMP DP  RH WIND       PRES   REMARKS
BAUDETTE       CLEAR     52  49  89 SW6       29.85S
FLAG ISLAND    CLEAR     57  54  88 SW6       29.81S HAZE
INTL FALLS     CLEAR     50  49  96 SW3       29.87S
WASKISH        CLEAR     61  54  77 S3        29.89S
BIG FORK       CLEAR     52  52 100 SW3       29.92S
LONGVILLE      CLEAR     57  54  88 SW5       29.95S
GRAND RAPIDS   CLEAR     58  53  84 SW6       29.96S
ORR            CLEAR     54  50  87 CALM      29.89S
COOK           CLEAR     55  52  88 SW3       29.92S
WALKER         FAIR      55  51  86 SW6       29.95S
$$
MNZ012-019>021-037-251000-
   Northeast Minnesota

CITY           SKY/WX    TMP DP  RH WIND       PRES   REMARKS
DULUTH         CLEAR     57  54  89 W10       29.95S
ELY            CLEAR     55  52  88 SW7       29.92S
HIBBING        CLEAR     47  47 100 CALM      29.94S FOG
EVELETH        CLEAR     54  52  94 W3        29.95S
DULUTH HARBOR  CLEAR     61  57  88 SW8       29.94S
TWO HARBORS    CLEAR     61  55  82 W6        29.92R
SILVER BAY     CLEAR     55  54  94 CALM      29.91R
GRAND MARAIS     N/A     63  51  65 SW9       29.87R
G MARAIS ARPRT CLEAR     55  48  76 W5        29.92R
$$
MNZ029>031-032-039>041-046>048-054>057-064-251000-
   West Central Minnesota

CITY           SKY/WX    TMP DP  RH WIND       PRES   REMARKS
FERGUS FALLS   CLEAR     54  52  94 W7        30.03R
WHEATON        PTCLDY    57  54  88 W7        30.05S
MORRIS         CLEAR     55  54  94 W3        30.03R
ALEXANDRIA     CLEAR     58  54  86 W8        30.03R
ELBOW LAKE     FAIR      54  51  90 NW7       30.03R
WADENA         CLEAR     54  52  94 SW6       29.98S
GLENWOOD       CLEAR     54  52  94 SW6       30.03S
APPLETON       CLEAR     55  54  94 W6        30.03S
BENSON         CLEAR     52  50  93 CALM      30.03S
ORTONVILLE     CLEAR     61  54  77 NW7       30.04S
MADISON        CLEAR     57  55  94 W7        30.05R
WILLMAR        FAIR      57  55  94 SW3       30.05R
$$
MNZ033>034-036-042>043-049>051-058-059-251000-
   Central Minnesota

CITY           SKY/WX    TMP DP  RH WIND       PRES   REMARKS
ST CLOUD       CLEAR     56  56 100 S6        30.01S
SAUK CENTRE    FAIR      55  54  95 SW3       30.02R
PAYNESVILLE    CLEAR     55  55 100 CALM      30.03S
AITKIN         CLEAR     61  52  72 SW3       29.96F
PINE RIVER     CLEAR     50  50 100 CALM      30.00F
BRAINERD       CLEAR     56  53  90 S6        29.98F
STAPLES        CLEAR     55  52  88 SW6       29.99R
LONG PRAIRIE   FAIR      54  54 100 S5        30.02R
LITTLE FALLS   CLEAR     54  52  94 CALM      30.00S
LITCHFIELD     CLEAR     61  57  88 CALM      30.03S
BUFFALO        CLEAR     60  57  88 CALM      30.03F
MAPLE LAKE     CLEAR     60  58  94 CALM      30.03S
HUTCHINSON     CLEAR     58  58  97 CALM      30.04S
$$
MNZ037-044-045-052-053-251000-
   East Central Minnesota

CITY           SKY/WX    TMP DP  RH WIND       PRES   REMARKS
PRINCETON      CLEAR     59  57  94 CALM      30.01S
MORA           CLEAR     55  54  94 CALM      30.02R
CAMBRIDGE      CLEAR     61  54  77 CALM      29.99S
RUSH CITY      PTCLDY    59  56  89 SW3       30.01S
MOOSE LAKE     CLEAR     52  52 100 SW3       29.96S FOG
HINCKLEY       FAIR      55  55 100 W3        29.99S
CLOQUET        CLEAR     59  52  77 W8        29.96S
MCGREGOR       CLEAR     55  54  94 SW5       29.97F
$$
MNZ071>073-080-081-089-090-097-098-251000-
   Southwest Minnesota

CITY           SKY/WX    TMP DP  RH WIND       PRES   REMARKS
MONTEVIDEO     CLEAR     57  54  88 NW6       30.05R
GRANITE FALLS  CLEAR     57  55  93 SW5       30.05S
CANBY          CLEAR     59  55  85 W6        30.07R
MARSHALL       CLEAR     60  55  83 W9        30.05S
REDWOOD FALLS  CLEAR     58  54  86 SW7       30.03F
OLIVIA         CLEAR     55  54  94 SW5       30.03S
PIPESTONE      PTCLDY    55  54  94 SW3       30.09R
WINDOM         MOCLDY    57  55  94 SW3       30.07S
WORTHINGTON    CLOUDY    58  56  93 SW6       30.09S
JACKSON        CLOUDY    59  54  82 W3        30.08S
TRACY          CLEAR     60  56  84 SW9       30.06S
SLAYTON        CLEAR     59  54  82 SW6       30.09S
$$
MNZ065>067-074>077-082>085-091>093-251000-
   South Central Minnesota

CITY           SKY/WX    TMP DP  RH WIND       PRES   REMARKS
MANKATO        CLOUDY    61  55  82 W6        30.05S
NEW ULM          N/A     57  57 100 CALM      30.05S
ST JAMES       CLOUDY    55  54  94 SW3       30.07R
FAIRMONT       PTCLDY    60  56  86 W3        30.07S
GLENCOE        CLEAR     60  59  96 CALM      30.03S
FARIBAULT      CLEAR     63  61  94 SW3       30.05R
OWATONNA       CLOUDY    61  57  88 S3        30.05S
WASECA         CLOUDY    59  55  88 S3        30.07R
ALBERT LEA     CLOUDY    63  61  94 CALM      30.06S
$$
MNZ078>079-086>088-094>096-251000-
   Southeast Minnesota

CITY           SKY/WX    TMP DP  RH WIND       PRES   REMARKS
ROCHESTER      CLOUDY    62  60  93 NW6       30.05S
RED WING       CLOUDY    61  61 100 CALM      30.01S
STANTON        CLOUDY    61  57  88 CALM      30.02R
DODGE CENTER   CLOUDY    61  59  94 W5        30.05S
WINONA         CLOUDY    63  59  88 NW3       30.03R
AUSTIN         CLOUDY    63  59  88 CALM      30.05S
PRESTON        CLOUDY    61  58  90 NW6       30.05S
$$
ABBREVIATIONS USED IN REMARKS
   TC - TEMPERATURES IN CELSIUS
  WCI - WIND CHILL INDEX
   HX - HEAT INDEX
  VSB - VISIBILITY
$$




USA.gov is the U.S. government's official web portal to all federal, state and local government web resources and services.